Flag for Sao Tome and Principe Weather past 2 weeks in São Tomé, Sao Tome and Principe

Now
79 °F

Passing clouds.


Feels Like: 82 °F
Forecast: 80 / 85 °F
Wind: 5 mph from Southwest

Location: S. Tome


UV Index: 7 (High)

Visibility: N/A


Pressure: 29.80 "Hg

Humidity: 84%

Dew point: 73 °F

Location of São ToméLocation

Historic Weather in São Tomé

°F

São Tomé temperature yesterday

Maximum temperature yesterday: 88 °F (at 10:00 AM)
Minimum temperature yesterday: 81 °F (at 4:00 AM)
Average temperature yesterday: 85 °F

Past Weeks' High & Low Weather Summary

 TemperatureHumidityPressure
High90 °F (Apr 9, 12:00 PM)100% (Apr 13, 6:00 AM)29.95 "Hg (Apr 13, 6:00 AM)
Low73 °F (Apr 4, 3:00 AM)62% (Apr 4, 9:00 AM)29.74 "Hg (Apr 17, 4:00 PM)
Average81 °F84%29.85 "Hg
* Reported Apr 3 4:00 AM — Apr 18 1:00 AM, São Tomé, Weather by CustomWeather, © 2014

Note: Actual official high and low records may vary slightly from our data, if they occured in-between our weather recording intervals... More about our weather records

Advertising

Historic Weather Conditions — Data for Previous 24 hours

 ConditionsComfort  
Time TempWeatherWind HumidityBarometerVisibility
1:00 AM
Apr 18
79 °FPassing clouds.5 mph84%29.80 "HgN/A
12:00 AM79 °FPassing clouds.5 mph84%29.80 "HgN/A
9:00 PM
Apr 17
81 °FPassing clouds.2 mph84%29.83 "HgN/A
8:00 PM81 °FPassing clouds.5 mph84%29.80 "HgN/A
7:00 PM84 °FPassing clouds.9 mph79%29.77 "HgN/A
6:00 PM84 °FPassing clouds.9 mph79%29.77 "HgN/A
5:00 PM86 °FScattered clouds.12 mph75%29.74 "HgN/A
4:00 PM86 °FScattered clouds.14 mph79%29.74 "HgN/A
3:00 PM88 °FScattered clouds.14 mph75%29.77 "HgN/A
2:00 PM88 °FScattered clouds.14 mph75%29.77 "HgN/A
1:00 PM88 °FScattered clouds.18 mph75%29.80 "HgN/A
12:00 PM88 °FScattered clouds.14 mph75%29.83 "HgN/A
11:00 AM88 °FScattered clouds.14 mph75%29.83 "HgN/A
10:00 AM88 °FScattered clouds.12 mph75%29.83 "HgN/A
9:00 AM86 °FScattered clouds.12 mph75%29.86 "HgN/A
8:00 AM84 °FScattered clouds.9 mph74%29.86 "HgN/A
4:00 AM81 °FPassing clouds.12 mph84%29.80 "HgN/A
Weather by CustomWeather, © 2014

See weather overview